Regional Weather Roundup
Issued by NWS

Home | Current Version | Previous Version | Graphics & Text | Print | Product List | Glossary On
Versions: 1 2 3 4 5 6 7 8 9 10 11 12 13 14 15 16 17 18 19 20 21 22 23 24 25 26 27
000
ASUS45 KCYS 171010
RWRWY

WYOMING REGIONAL WEATHER ROUNDUP
NATIONAL WEATHER SERVICE CHEYENNE WY
400 AM MDT THU AUG 17 2017

NOTE:  "FAIR" INDICATES FEW OR NO CLOUDS BELOW 12,000 FEET
WITH NO SIGNIFICANT WEATHER AND/OR OBSTRUCTIONS TO VISIBILITY.

WYZ001-171100-
YELLOWSTONE NATIONAL PARK

CITY           SKY/WX    TMP DP  RH WIND       PRES   REMARKS
LK YELLOWSTONE   N/A     43  41  93 CALM      30.26S
W YELLOWSTONE  NOT AVBL

$$
WYZ002>013-054>058-071-098>099-171100-
NORTHERN WYOMING

CITY           SKY/WX    TMP DP  RH WIND       PRES   REMARKS
JACKSON        FAIR      41  35  79 NE6       30.20R
CODY           FAIR      61  38  42 NE3       30.05R
GREYBULL       FAIR      58  44  60 SE5       29.97S
WORLAND        FAIR      54  45  71 S5        29.99R
SHERIDAN       FAIR      54  44  69 SW5       29.95S
BUFFALO        FAIR      61  35  37 W6        30.02S
GILLETTE       FAIR      64  37  36 SW12      29.97S
HULETT         FAIR      64  39  39 SW6       29.99S
NEWCASTLE      FAIR      61  37  41 S7G20     30.02S

$$
WYZ014>020-022>026-101>103-171100-
CENTRAL WYOMING

CITY           SKY/WX    TMP DP  RH WIND       PRES   REMARKS
BIG PINEY      FAIR      42  35  76 NE6       30.25R
PINEDALE       FAIR      39  36  87 NW6       30.26S WCI  35
DUBOIS         FAIR      45  32  61 W16       30.21S
LANDER           N/A    N/A N/A N/A MISG      30.09S
RIVERTON       FAIR      58  38  47 W9        30.09S
CASPER         FAIR      56  42  59 W6        30.08S
DOUGLAS        FAIR      55  44  66 E3        30.07S

$$
WYZ021-027>030-104>119-171100-
SOUTHERN WYOMING

CITY           SKY/WX    TMP DP  RH WIND       PRES   REMARKS
EVANSTON       FAIR      55  36  48 S6        30.26S
KEMMERER         N/A     48  37  66 N10       30.26S
FORT BRIDGER   FAIR      59  34  39 W9        30.27S
ROCK SPRINGS   FAIR      58  36  43 W12       30.22S
RAWLINS        FAIR      51  41  68 SW7       30.21R
SARATOGA       FAIR      52  41  66 S15       30.24F
LARAMIE        FAIR      44  39  82 S9        30.24S
CHEYENNE       FAIR      56  44  64 SW9       30.18S
TORRINGTON     FAIR      52  48  86 SE8       30.04F
PINE BLUFFS    FAIR      50  50 100 SW6       30.14S

$$




USA.gov is the U.S. government's official web portal to all federal, state and local government web resources and services.